Regional Weather Roundup
Issued by NWS

Home | Current Version | Previous Version | Text Only | Print | Product List | Glossary On
Versions: 1 2 3 4 5 6 7 8 9 10 11 12 13 14 15 16 17 18 19 20 21 22 23 24 25 26 27 28 29 30 31 32 33 34 35 36 37 38 39 40 41 42 43 44 45 46 47 48 49 50
000
ASUS43 KMPX 310301
RWRMN
WEATHER ROUNDUP FOR MINNESOTA
NATIONAL WEATHER SERVICE TWIN CITIES/CHANHASSEN MN
1000 PM CDT SAT AUG 30 2014


NOTE: "FAIR" INDICATES FEW OR NO CLOUDS BELOW 12,000 FEET WITH NO
SIGNIFICANT WEATHER AND/OR OBSTRUCTIONS TO VISIBILITY. N/A MEANS
CURRENT SKY AND/OR WEATHER CONDITIONS ARE NOT AVAILABLE.

MNZ060>063-068>070-310400-
   Twin Cities Metro

CITY           SKY/WX    TMP DP  RH WIND       PRES   REMARKS
TWIN CITIES    MOCLDY    68  62  81 SE7       29.88R
ST PAUL        CLOUDY    67  62  84 SE8       29.88S
CRYSTAL        CLOUDY    70  60  70 SE7       29.86S
BLAINE         CLOUDY    70  63  78 SE5       29.88R
LAKEVILLE      CLEAR     63  61  94 CALM      29.89R
EDEN PRAIRIE   PTCLDY    66  64  93 SE6       29.87S
SOUTH ST PAUL  CLOUDY    68  61  76 SE3       29.87F
LAKE ELMO      MOCLDY    63  61  94 E3        29.90S
$$
MNZ001>005-007-008-013>017-022>024-027-028-310400-
   Northwest Minnesota

CITY           SKY/WX    TMP DP  RH WIND       PRES   REMARKS
BEMIDJI        CLOUDY    62  59  88 SE8       29.85F
HALLOCK        CLEAR     63  52  67 SE9       29.78F
ROSEAU         CLEAR     59  54  82 SE7       29.83S
WARROAD        CLEAR     57  54  88 SE3       29.83S
THIEF RVR FALL PTCLDY    57  55  94 SE8       29.82F
CROOKSTON      CLEAR     59  57  94 SE8       29.81F
FOSSTON        CLOUDY    61  55  82 SE7       29.84S
DETROIT LAKES  PTCLDY    61  59  94 SE8       29.84F
MOORHEAD       CLEAR     63  63 100 S5        29.82S
PARK RAPIDS    CLOUDY    62  61  96 SE7       29.85F
MAHNOMEN       CLOUDY    62  59  91 SE7       29.83S
$$
MNZ006-009>011-018-025>026-310400-
   North Central Minnesota

CITY           SKY/WX    TMP DP  RH WIND       PRES   REMARKS
BAUDETTE       MOCLDY    59  53  80 SE7       29.84S
FLAG ISLAND    CLEAR     63  54  72 E3        29.82S
INTL FALLS     CLEAR     54  52  93 CALM      29.87S
WASKISH        CLOUDY    61  57  88 CALM      29.85F
BIG FORK       MOCLDY    59  57  94 CALM      29.88F
LONGVILLE      CLOUDY    63  61  94 CALM      29.86F
GRAND RAPIDS   MOCLDY    63  57  82 SE3       29.88S
CRANE LAKE     CLEAR     48  48 100 CALM      29.90F
ORR            CLEAR     54  52  94 CALM      29.86F
COOK           MOCLDY    61  55  82 SE3       29.89F
WALKER         CLOUDY    63  60  90 E3        29.86F
$$
MNZ012-019>021-037-310400-
   Northeast Minnesota

CITY           SKY/WX    TMP DP  RH WIND       PRES   REMARKS
DULUTH         CLOUDY    61  58  90 SE10      29.91S FOG
ELY            MOCLDY    57  55  94 CALM      29.91S
HIBBING        CLOUDY    63  57  82 SE8       29.89F
EVELETH        CLOUDY    59  59 100 SE8       29.91S
DULUTH HARBOR  CLOUDY    64  61  88 E8        29.91S
TWO HARBORS    CLOUDY    57  54  88 CALM      29.91S
SILVER BAY     PTCLDY    57  57 100 CALM      29.91S
GRAND MARAIS     N/A     58  56  93 CALM      29.91S
G MARAIS ARPRT MOCLDY    54  52  94 CALM      29.94F
$$
MNZ029>031-032-039>041-046>048-054>057-064-310400-
   West Central Minnesota

CITY           SKY/WX    TMP DP  RH WIND       PRES   REMARKS
FERGUS FALLS   CLEAR     61  57  88 SE3       29.83F
WHEATON        CLEAR     55  54  94 SE7       29.84S
MORRIS         FAIR      61  59  94 SE6       29.83F
ALEXANDRIA     CLOUDY    64  61  90 S5        29.86F
ELBOW LAKE     FAIR      61  60  96 SE6       29.83F
WADENA         CLOUDY    61  59  94 E3        29.85F FOG
GLENWOOD       CLEAR     61  61 100 CALM      29.86S
APPLETON       CLEAR     63  59  88 SE6       29.83F
BENSON         CLEAR     61  61 100 SE3       29.84F
ORTONVILLE     PTCLDY    61  57  88 SE6       29.83S FOG
MADISON        CLEAR     63  61  94 SE6       29.83F
WILLMAR        FOG       61  59  94 CALM      29.87F VSB 1/2
$$
MNZ033>034-036-042>043-049>051-058-059-310400-
   Central Minnesota

CITY           SKY/WX    TMP DP  RH WIND       PRES   REMARKS
ST CLOUD       MOCLDY    69  65  86 SE5       29.86S
SAUK CENTRE    CLOUDY    66  63  88 CALM      29.86S
PAYNESVILLE    HVY RAIN  62  62  99 E3        29.87S
AITKIN         CLOUDY    66  61  82 NE3       29.86S
PINE RIVER     MOCLDY    61  61 100 CALM      29.90S
BRAINERD       CLOUDY    63  62  97 E3        29.87S
STAPLES        PTCLDY    61  59  94 CALM      29.86F
LONG PRAIRIE   MOCLDY    61  61 100 E3        29.87S
LITTLE FALLS   CLOUDY    64  63  94 CALM      29.86S
LITCHFIELD     CLEAR     64  64 100 CALM      29.87F
BUFFALO        CLEAR     65  63  91 CALM      29.88S
MAPLE LAKE     PTCLDY    65  64  98 CALM      29.88S
$$
MNZ037-044-045-052-053-310400-
   East Central Minnesota

CITY           SKY/WX    TMP DP  RH WIND       PRES   REMARKS
PRINCETON      CLEAR     68  63  83 E5        29.87F
MORA           MOCLDY    64  61  88 SE3       29.90S
CAMBRIDGE      PTCLDY    70  57  64 SE3       29.86S
RUSH CITY      CLOUDY    64  60  87 CALM      29.89R
MOOSE LAKE     CLOUDY    63  59  88 CALM      29.88R
HINCKLEY       CLOUDY    64  61  88 SE5       29.89R
CLOQUET        CLOUDY    61  57  88 E7        29.90F
MCGREGOR       CLOUDY    63  61  94 E7        29.89S
$$
MNZ071>073-080-081-089-090-097-098-310400-
   Southwest Minnesota

CITY           SKY/WX    TMP DP  RH WIND       PRES   REMARKS
MONTEVIDEO     CLEAR     59  59 100 SE5       29.85F
GRANITE FALLS  CLEAR     61  60  97 E3        29.86F
CANBY          CLEAR     60  59  96 SE6       29.85S
MARSHALL       CLEAR     63  59  88 SE8       29.84S
REDWOOD FALLS  CLEAR     63  61  93 E6        29.85F
OLIVIA         CLEAR     61  57  88 CALM      29.86S
PIPESTONE      CLEAR     61  57  88 S5        29.86S
WINDOM         CLEAR     63  61  94 CALM      29.88S
WORTHINGTON    CLEAR     64  61  88 S5        29.88F
JACKSON        CLEAR     63  61  94 E3        29.88S
TRACY          CLEAR     63  62  96 CALM      29.86F
SLAYTON        CLEAR     61  60  97 CALM      29.88S
$$
MNZ065>067-074>077-082>085-091>093-310400-
   South Central Minnesota

CITY           SKY/WX    TMP DP  RH WIND       PRES   REMARKS
MANKATO        CLEAR     66  61  82 CALM      29.88S
NEW ULM        CLEAR     64  64 100 CALM      29.87S
ST JAMES       MOCLDY    63  61  94 E3        29.88S FOG
FAIRMONT       CLEAR     63  57  82 E3        29.88S
GLENCOE        PTCLDY    66  63  87 CALM      29.87S
FARIBAULT      MOCLDY    68  63  83 CALM      29.89S
OWATONNA       CLEAR     64  63  94 CALM      29.89S
WASECA         CLEAR     61  55  82 CALM      29.91R
ALBERT LEA     CLEAR     64  64 100 CALM      29.89S FOG
$$
MNZ078>079-086>088-094>096-310400-
   Southeast Minnesota

CITY           SKY/WX    TMP DP  RH WIND       PRES   REMARKS
ROCHESTER      CLEAR     65  62  90 SE5       29.90S
RED WING       PTCLDY    64  61  88 CALM      29.88R
STANTON        CLOUDY    68  62  80 CALM      29.88S
DODGE CENTER   MOCLDY    68  66  94 E3        29.90S
WINONA         CLOUDY    70  64  83 CALM      29.89S
AUSTIN         CLEAR     64  63  94 CALM      29.89S
PRESTON        PTCLDY    65  66 100 CALM      29.91R
$$
ABBREVIATIONS USED IN REMARKS
   TC - TEMPERATURES IN CELSIUS
  WCI - WIND CHILL INDEX
   HX - HEAT INDEX
  VSB - VISIBILITY
$$



USA.gov is the U.S. government's official web portal to all federal, state and local government web resources and services.